SAS79U EKCH-ENTC

Flight info

Callsign SAS79U
Flight time 2h 0m
Altitude 37000
Route VEDAR DCT PENNO DCT ATWEG
Aircraft A319/M-SDE3FGIJ1RWXY/LB1

Departure

Time 2026-05-04 11:05
Airport Copenhagen Kastrup Airport (EKCH)

Arrival

Time 2026-05-04 13:06
Airport Tromsø Airport (ENTC)
Time Latitude Longitude Altitude Speed Heading
2026-05-04 10:57 55.62629 12.64125 26 ft 0 kts 123°
2026-05-04 10:58 55.62628 12.64128 26 ft 2 kts 123°
2026-05-04 10:58 55.62600 12.64196 27 ft 10 kts 135°
2026-05-04 10:58 55.62532 12.64205 25 ft 7 kts 164°
2026-05-04 10:58 55.62493 12.64286 24 ft 9 kts 125°
2026-05-04 10:59 55.62450 12.64391 25 ft 12 kts 130°
2026-05-04 10:59 55.62382 12.64445 24 ft 9 kts 193°
2026-05-04 10:59 55.62307 12.64409 25 ft 15 kts 195°
2026-05-04 10:59 55.62189 12.64342 23 ft 11 kts 210°
2026-05-04 11:00 55.62113 12.64272 26 ft 14 kts 204°
2026-05-04 11:01 55.61426 12.63764 25 ft 69 kts 222°
2026-05-04 11:02 55.60908 12.62961 26 ft 127 kts 221°
2026-05-04 11:02 55.60118 12.61749 63 ft 169 kts 226°
2026-05-04 11:05 55.62034 12.30320 10220 ft 297 kts 348°
2026-05-04 11:06 55.64169 12.29901 10461 ft 319 kts 349°
2026-05-04 11:06 55.66419 12.29494 11013 ft 328 kts 349°
2026-05-04 11:06 55.68708 12.29092 11695 ft 333 kts 349°
2026-05-04 11:06 55.71025 12.28686 12409 ft 336 kts 349°
2026-05-04 11:08 55.88015 12.26335 16721 ft 364 kts 351°
2026-05-04 11:10 56.06270 12.24545 20537 ft 386 kts 350°
2026-05-04 11:12 56.25265 12.20100 23917 ft 403 kts 345°
2026-05-04 11:12 56.28041 12.19333 24337 ft 405 kts 345°
2026-05-04 11:12 56.30831 12.18560 24741 ft 407 kts 345°
2026-05-04 11:12 56.33636 12.17784 25137 ft 409 kts 345°
2026-05-04 11:13 56.36458 12.17005 25525 ft 411 kts 345°
2026-05-04 11:13 56.39296 12.16221 25911 ft 414 kts 345°
2026-05-04 11:13 56.42146 12.15428 26316 ft 415 kts 345°
2026-05-04 11:13 56.45006 12.14628 26701 ft 417 kts 345°
2026-05-04 11:14 56.47883 12.13825 27068 ft 419 kts 345°
2026-05-04 11:14 56.50778 12.13023 27435 ft 422 kts 346°
2026-05-04 11:14 56.53740 12.12698 27837 ft 431 kts 356°
2026-05-04 11:16 56.74068 12.17356 30153 ft 449 kts
2026-05-04 11:16 56.77172 12.18094 30419 ft 452 kts
2026-05-04 11:16 56.80299 12.18844 30719 ft 453 kts
2026-05-04 11:17 56.83426 12.19606 30991 ft 455 kts
2026-05-04 11:17 56.86575 12.20380 31246 ft 457 kts
2026-05-04 11:19 57.08663 12.25765 33632 ft 456 kts
2026-05-04 11:19 57.11799 12.26536 33976 ft 456 kts
2026-05-04 11:19 57.14947 12.27313 34258 ft 455 kts
2026-05-04 11:19 57.18089 12.28090 34517 ft 455 kts
2026-05-04 11:20 57.21231 12.28869 34764 ft 455 kts
2026-05-04 11:20 57.24371 12.29643 35010 ft 455 kts
2026-05-04 11:20 57.27472 12.30409 35254 ft 455 kts
2026-05-04 11:20 57.30614 12.31191 35492 ft 456 kts
2026-05-04 11:22 57.52610 12.36677 36849 ft 456 kts
2026-05-04 11:22 57.55753 12.37469 36837 ft 456 kts
2026-05-04 11:23 57.62047 12.39065 36840 ft 456 kts
2026-05-04 11:25 57.84062 12.44655 36832 ft 456 kts
2026-05-04 11:25 57.90353 12.46280 36847 ft 456 kts
2026-05-04 11:27 58.18680 12.53601 36802 ft 457 kts
2026-05-04 11:28 58.24976 12.55240 36810 ft 457 kts
2026-05-04 11:28 58.31265 12.56887 36810 ft 457 kts
2026-05-04 11:29 58.37560 12.58537 36784 ft 457 kts
2026-05-04 11:29 58.43858 12.60209 36811 ft 457 kts
2026-05-04 11:33 58.87966 12.72031 36760 ft 458 kts
2026-05-04 11:33 58.94277 12.73731 36757 ft 458 kts
2026-05-04 11:34 59.00587 12.75459 36759 ft 459 kts
2026-05-04 11:34 59.06907 12.77197 36744 ft 459 kts
2026-05-04 11:35 59.13228 12.78941 36731 ft 459 kts
2026-05-04 11:35 59.19554 12.80691 36732 ft 459 kts
2026-05-04 11:36 59.25880 12.82434 36761 ft 459 kts
2026-05-04 11:36 59.32213 12.84197 36723 ft 460 kts
2026-05-04 11:37 59.38556 12.85968 36710 ft 460 kts
2026-05-04 11:37 59.44901 12.87745 36698 ft 461 kts
2026-05-04 11:38 59.51246 12.89537 36700 ft 461 kts
2026-05-04 11:38 59.57600 12.91329 36713 ft 462 kts
2026-05-04 11:39 59.63967 12.93132 36699 ft 462 kts
2026-05-04 11:41 59.86320 12.99501 36710 ft 465 kts
2026-05-04 11:41 59.92688 13.01359 36693 ft 466 kts
2026-05-04 11:42 59.99104 13.03234 36692 ft 466 kts
2026-05-04 11:42 60.05525 13.05098 36693 ft 466 kts
2026-05-04 11:43 60.11954 13.06957 36740 ft 467 kts
2026-05-04 11:43 60.18390 13.08839 36708 ft 468 kts
2026-05-04 11:44 60.24829 13.10731 36694 ft 468 kts
2026-05-04 11:44 60.31284 13.12643 36658 ft 469 kts
2026-05-04 11:45 60.37736 13.14563 36650 ft 469 kts
2026-05-04 11:45 60.44186 13.16478 36675 ft 469 kts
2026-05-04 11:46 60.50647 13.18410 36651 ft 469 kts
2026-05-04 11:46 60.57111 13.20348 36639 ft 470 kts
2026-05-04 11:47 60.63577 13.22304 36636 ft 470 kts
2026-05-04 11:47 60.70044 13.24258 36672 ft 470 kts
2026-05-04 11:48 60.76519 13.26216 36643 ft 470 kts
2026-05-04 11:48 60.82994 13.28176 36623 ft 470 kts
2026-05-04 11:49 60.89473 13.30164 36618 ft 471 kts
2026-05-04 11:49 60.95947 13.32180 36609 ft 471 kts
2026-05-04 11:50 61.02428 13.34186 36616 ft 471 kts
2026-05-04 11:50 61.08922 13.36167 36610 ft 471 kts
2026-05-04 11:51 61.15403 13.38175 36612 ft 471 kts
2026-05-04 11:51 61.21843 13.40191 36612 ft 471 kts
2026-05-04 11:52 61.28330 13.42228 36644 ft 471 kts
2026-05-04 11:52 61.34816 13.44283 36627 ft 472 kts
2026-05-04 11:53 61.41312 13.46338 36619 ft 472 kts
2026-05-04 11:53 61.47809 13.48403 36616 ft 472 kts
2026-05-04 11:55 61.73812 13.56778 36645 ft 472 kts
2026-05-04 11:56 61.80302 13.58906 36640 ft 472 kts
2026-05-04 11:56 61.86790 13.61014 36671 ft 472 kts
2026-05-04 11:57 61.93282 13.63119 36648 ft 472 kts
2026-05-04 11:57 61.99739 13.65240 36645 ft 473 kts
2026-05-04 11:58 62.06248 13.67387 36646 ft 473 kts
2026-05-04 11:58 62.12751 13.69540 36655 ft 473 kts
2026-05-04 11:59 62.19263 13.71715 36680 ft 473 kts
2026-05-04 11:59 62.25767 13.73886 36665 ft 473 kts
2026-05-04 12:00 62.32274 13.76081 36656 ft 473 kts
2026-05-04 12:00 62.38785 13.78288 36657 ft 474 kts
2026-05-04 12:01 62.45303 13.80492 36689 ft 474 kts
2026-05-04 12:02 62.68135 13.88317 36664 ft 475 kts
2026-05-04 12:03 62.73564 13.90200 36666 ft 475 kts
2026-05-04 12:03 62.80095 13.92470 36685 ft 476 kts
2026-05-04 12:04 62.86643 13.94739 36673 ft 476 kts
2026-05-04 12:04 62.93198 13.97022 36668 ft 477 kts
2026-05-04 12:05 62.99751 13.99340 36666 ft 477 kts
2026-05-04 12:05 63.06349 14.01680 36693 ft 477 kts
2026-05-04 12:06 63.12898 14.04003 36665 ft 477 kts
2026-05-04 12:06 63.19416 14.06313 36643 ft 477 kts
2026-05-04 12:07 63.25977 14.08658 36639 ft 478 kts
2026-05-04 12:07 63.32545 14.11044 36631 ft 478 kts
2026-05-04 12:08 63.39115 14.13429 36646 ft 479 kts
2026-05-04 12:08 63.45690 14.15816 36634 ft 479 kts
2026-05-04 12:09 63.52265 14.18211 36631 ft 479 kts
2026-05-04 12:09 63.58853 14.20633 36621 ft 480 kts
2026-05-04 12:10 63.65442 14.23066 36622 ft 480 kts
2026-05-04 12:10 63.72036 14.25503 36637 ft 480 kts
2026-05-04 12:11 63.78626 14.27952 36624 ft 480 kts
2026-05-04 12:11 63.85222 14.30420 36620 ft 480 kts
2026-05-04 12:12 63.91818 14.32888 36611 ft 481 kts
2026-05-04 12:12 63.98418 14.35366 36612 ft 481 kts
2026-05-04 12:14 64.24651 14.45409 36601 ft 480 kts
2026-05-04 12:15 64.31242 14.47955 36617 ft 480 kts
2026-05-04 12:15 64.37833 14.50512 36608 ft 480 kts
2026-05-04 12:16 64.44430 14.53090 36625 ft 481 kts
2026-05-04 12:16 64.51027 14.55684 36616 ft 481 kts
2026-05-04 12:17 64.57621 14.58280 36603 ft 480 kts
2026-05-04 12:17 64.64207 14.60890 36622 ft 480 kts
2026-05-04 12:18 64.70746 14.63492 36601 ft 480 kts
2026-05-04 12:18 64.77328 14.66125 36602 ft 480 kts
2026-05-04 12:19 64.83904 14.68778 36595 ft 479 kts
2026-05-04 12:19 64.90482 14.71421 36610 ft 479 kts
2026-05-04 12:20 64.97053 14.74085 36599 ft 479 kts
2026-05-04 12:20 65.03624 14.76763 36585 ft 478 kts
2026-05-04 12:21 65.10184 14.79452 36580 ft 478 kts
2026-05-04 12:21 65.16738 14.82166 36568 ft 478 kts
2026-05-04 12:22 65.23303 14.84883 36594 ft 479 kts
2026-05-04 12:22 65.29863 14.87598 36580 ft 478 kts
2026-05-04 12:23 65.36409 14.90345 36575 ft 477 kts
2026-05-04 12:23 65.42952 14.93104 36564 ft 477 kts
2026-05-04 12:24 65.49496 14.95864 36561 ft 477 kts
2026-05-04 12:24 65.56037 14.98642 36570 ft 477 kts
2026-05-04 12:25 65.62581 15.01446 36541 ft 477 kts
2026-05-04 12:25 65.69121 15.04253 36521 ft 477 kts
2026-05-04 12:26 65.75657 15.07074 36514 ft 477 kts
2026-05-04 12:26 65.82188 15.09914 36516 ft 477 kts
2026-05-04 12:27 65.88683 15.12725 36529 ft 477 kts
2026-05-04 12:27 65.95210 15.15568 36528 ft 476 kts
2026-05-04 12:28 66.01730 15.18445 36528 ft 476 kts
2026-05-04 12:28 66.08244 15.21333 36526 ft 476 kts
2026-05-04 12:29 66.14759 15.24252 36554 ft 475 kts
2026-05-04 12:29 66.21262 15.27159 36540 ft 475 kts
2026-05-04 12:30 66.27770 15.30092 36537 ft 475 kts
2026-05-04 12:30 66.34272 15.33031 36533 ft 475 kts
2026-05-04 12:31 66.40779 15.35992 36532 ft 475 kts
2026-05-04 12:31 66.47283 15.38958 36554 ft 475 kts
2026-05-04 12:32 66.57037 15.43434 36545 ft 475 kts
2026-05-04 12:33 66.63533 15.46446 36542 ft 475 kts
2026-05-04 12:33 66.70029 15.49477 36545 ft 475 kts
2026-05-04 12:34 66.76525 15.52510 36543 ft 475 kts
2026-05-04 12:34 66.83021 15.55560 36567 ft 475 kts
2026-05-04 12:35 66.89513 15.58620 36560 ft 474 kts
2026-05-04 12:35 66.95987 15.61705 36559 ft 473 kts
2026-05-04 12:36 67.02463 15.64818 36556 ft 473 kts
2026-05-04 12:36 67.08884 15.67899 36557 ft 473 kts
2026-05-04 12:37 67.15355 15.71017 36552 ft 473 kts
2026-05-04 12:37 67.21814 15.74171 36551 ft 473 kts
2026-05-04 12:38 67.28273 15.77328 36551 ft 472 kts
2026-05-04 12:38 67.34727 15.80491 36548 ft 472 kts
2026-05-04 12:39 67.41182 15.83666 36549 ft 472 kts
2026-05-04 12:39 67.47624 15.86884 36558 ft 471 kts
2026-05-04 12:40 67.54065 15.90124 36570 ft 471 kts
2026-05-04 12:40 67.60498 15.93351 36562 ft 470 kts
2026-05-04 12:41 67.66888 15.96564 36557 ft 470 kts
2026-05-04 12:41 67.73341 15.99841 36553 ft 469 kts
2026-05-04 12:42 67.79763 16.03098 36231 ft 473 kts
2026-05-04 12:42 67.83010 16.04747 35499 ft 483 kts
2026-05-04 12:42 67.86315 16.06453 35078 ft 485 kts
2026-05-04 12:42 67.89631 16.08182 34577 ft 487 kts
2026-05-04 12:43 67.92926 16.10281 34080 ft 487 kts 17°
2026-05-04 12:43 67.95997 16.13750 33685 ft 485 kts 26°
2026-05-04 12:43 67.98973 16.18026 33165 ft 483 kts 27°
2026-05-04 12:43 68.01902 16.22274 32800 ft 477 kts 27°
2026-05-04 12:44 68.04809 16.26520 32331 ft 474 kts 27°
2026-05-04 12:44 68.07681 16.30740 31847 ft 469 kts 27°
2026-05-04 12:44 68.10521 16.34930 31301 ft 463 kts 27°
2026-05-04 12:44 68.13333 16.39081 30768 ft 458 kts 27°
2026-05-04 12:45 68.16108 16.43176 30238 ft 453 kts 27°
2026-05-04 12:45 68.18864 16.47250 29654 ft 450 kts 27°
2026-05-04 12:45 68.21585 16.51290 29166 ft 443 kts 27°
2026-05-04 12:45 68.24257 16.55268 28749 ft 434 kts 27°
2026-05-04 12:46 68.26873 16.59175 28326 ft 426 kts 27°
2026-05-04 12:46 68.29442 16.63029 27923 ft 419 kts 28°
2026-05-04 12:46 68.31978 16.66850 27521 ft 416 kts 28°
2026-05-04 12:46 68.34502 16.70666 27116 ft 415 kts 28°
2026-05-04 12:47 68.37016 16.74470 26715 ft 413 kts 28°
2026-05-04 12:47 68.39523 16.78265 26307 ft 411 kts 28°
2026-05-04 12:47 68.42015 16.82038 25869 ft 409 kts 28°
2026-05-04 12:47 68.44484 16.85791 25454 ft 405 kts 28°
2026-05-04 12:48 68.46930 16.89521 25012 ft 402 kts 28°
2026-05-04 12:48 68.49358 16.93230 24583 ft 398 kts 28°
2026-05-04 12:48 68.51761 16.96922 24145 ft 395 kts 28°
2026-05-04 12:48 68.54113 17.00545 23684 ft 392 kts 28°
2026-05-04 12:49 68.56509 17.04242 23246 ft 389 kts 28°
2026-05-04 12:49 68.58825 17.07821 22759 ft 386 kts 29°
2026-05-04 12:49 68.61166 17.11442 22304 ft 384 kts 29°
2026-05-04 12:49 68.63480 17.15029 21859 ft 381 kts 28°
2026-05-04 12:50 68.65773 17.18590 21423 ft 377 kts 28°
2026-05-04 12:50 68.68040 17.22128 20970 ft 374 kts 28°
2026-05-04 12:50 68.70293 17.25656 20530 ft 371 kts 28°
2026-05-04 12:50 68.72526 17.29156 20098 ft 367 kts 28°
2026-05-04 12:51 68.73992 17.31455 19812 ft 365 kts 28°
2026-05-04 12:51 68.76200 17.34927 19378 ft 366 kts 29°
2026-05-04 12:51 68.78420 17.38423 18930 ft 369 kts 29°
2026-05-04 12:51 68.80647 17.41941 18486 ft 368 kts 29°
2026-05-04 12:52 68.82862 17.45456 18045 ft 365 kts 29°
2026-05-04 12:52 68.85058 17.48946 17585 ft 363 kts 29°
2026-05-04 12:52 68.87236 17.52410 17137 ft 359 kts 29°
2026-05-04 12:52 68.89382 17.55826 16707 ft 355 kts 29°
2026-05-04 12:53 68.91510 17.59228 16278 ft 351 kts 29°
2026-05-04 12:53 68.93616 17.62601 15856 ft 347 kts 29°
2026-05-04 12:53 68.95700 17.65943 15438 ft 344 kts 29°
2026-05-04 12:53 68.97766 17.69271 15025 ft 343 kts 29°
2026-05-04 12:54 68.99828 17.72608 14642 ft 343 kts 29°
2026-05-04 12:54 69.01876 17.75932 14282 ft 342 kts 29°
2026-05-04 12:54 69.03910 17.79235 13961 ft 335 kts 30°
2026-05-04 12:54 69.05904 17.82528 13420 ft 331 kts 33°
2026-05-04 12:55 69.07644 17.86636 12945 ft 324 kts 44°
2026-05-04 12:55 69.09230 17.90998 12550 ft 315 kts 44°
2026-05-04 12:55 69.10773 17.95245 12174 ft 307 kts 44°
2026-05-04 12:55 69.12251 17.99327 11809 ft 299 kts 44°
2026-05-04 12:56 69.13737 18.03447 11451 ft 293 kts 45°
2026-05-04 12:56 69.15173 18.07443 11098 ft 291 kts 45°
2026-05-04 12:56 69.16617 18.11470 10732 ft 294 kts 45°
2026-05-04 12:56 69.18079 18.15560 10366 ft 298 kts 45°
2026-05-04 12:57 69.19557 18.19702 9997 ft 301 kts 45°
2026-05-04 12:57 69.21048 18.23888 9618 ft 304 kts 45°
2026-05-04 12:57 69.22547 18.28093 9339 ft 301 kts 45°
2026-05-04 12:57 69.23986 18.32136 9182 ft 292 kts 45°
2026-05-04 12:58 69.25411 18.36146 8829 ft 288 kts 45°
2026-05-04 12:58 69.26819 18.40130 8341 ft 285 kts 46°
2026-05-04 12:58 69.28215 18.44098 7852 ft 284 kts 46°
2026-05-04 12:58 69.29596 18.48024 7443 ft 280 kts 46°
2026-05-04 12:59 69.30964 18.51913 7061 ft 277 kts 46°
2026-05-04 12:59 69.32378 18.55583 6802 ft 276 kts 36°
2026-05-04 12:59 69.33958 18.58635 6725 ft 273 kts 34°
2026-05-04 12:59 69.35514 18.61647 6643 ft 270 kts 34°
2026-05-04 13:00 69.37051 18.64650 6580 ft 267 kts 34°
2026-05-04 13:00 69.38572 18.67629 6497 ft 265 kts 35°
2026-05-04 13:00 69.40088 18.70594 6384 ft 264 kts 35°
2026-05-04 13:00 69.41606 18.73527 6267 ft 263 kts 32°
2026-05-04 13:01 69.43303 18.75465 6025 ft 268 kts 14°
2026-05-04 13:01 69.45152 18.76664 5596 ft 274 kts 12°
2026-05-04 13:01 69.47006 18.77821 5239 ft 269 kts 13°
2026-05-04 13:01 69.48783 18.78975 4909 ft 253 kts 13°
2026-05-04 13:02 69.50441 18.80065 4681 ft 237 kts 13°
2026-05-04 13:02 69.52017 18.81103 4293 ft 229 kts 13°
2026-05-04 13:02 69.53553 18.82117 3808 ft 224 kts 13°
2026-05-04 13:02 69.55052 18.83064 3431 ft 216 kts 14°
2026-05-04 13:03 69.56504 18.83993 2999 ft 213 kts 14°
2026-05-04 13:03 69.57938 18.84946 2528 ft 209 kts 14°
2026-05-04 13:03 69.59324 18.85875 2168 ft 201 kts 14°
2026-05-04 13:03 69.60644 18.86744 1861 ft 187 kts 14°
2026-05-04 13:04 69.61818 18.87468 1676 ft 159 kts 14°
2026-05-04 13:04 69.62839 18.88146 1310 ft 148 kts 14°
2026-05-04 13:04 69.63808 18.88824 972 ft 140 kts 14°
2026-05-04 13:04 69.64721 18.89434 721 ft 129 kts 14°
2026-05-04 13:05 69.65572 18.90008 530 ft 123 kts 14°
2026-05-04 13:05 69.66396 18.90588 332 ft 121 kts 13°
2026-05-04 13:05 69.67207 18.91124 112 ft 118 kts 14°
2026-05-04 13:05 69.67958 18.91632 37 ft 97 kts 13°
2026-05-04 13:06 69.68444 18.91974 35 ft 47 kts 13°
2026-05-04 13:06 69.68648 18.92102 31 ft 27 kts 13°
2026-05-04 13:06 69.68759 18.92079 28 ft 3 kts 288°
2026-05-04 13:06 69.68764 18.92005 30 ft 6 kts 282°
2026-05-04 13:07 69.68775 18.91867 30 ft 8 kts 283°
2026-05-04 13:07 69.68760 18.91711 31 ft 10 kts 202°
2026-05-04 13:07 69.68691 18.91662 31 ft 11 kts 191°
2026-05-04 13:07 69.68616 18.91613 32 ft 11 kts 194°
2026-05-04 13:08 69.68537 18.91556 32 ft 12 kts 194°
2026-05-04 13:08 69.68454 18.91506 33 ft 12 kts 186°
2026-05-04 13:08 69.68377 18.91501 33 ft 11 kts 179°
2026-05-04 13:08 69.68302 18.91479 34 ft 11 kts 192°
2026-05-04 13:09 69.68222 18.91427 34 ft 12 kts 193°
2026-05-04 13:09 69.68135 18.91368 35 ft 10 kts 193°
2026-05-04 13:09 69.68055 18.91318 35 ft 13 kts 192°
2026-05-04 13:09 69.67994 18.91267 34 ft 7 kts 213°
2026-05-04 13:10 69.68000 18.91119 34 ft 9 kts 287°
2026-05-04 13:10 69.68010 18.90997 36 ft 1 kts 283°
2026-05-04 13:10 69.68013 18.90975 36 ft 1 kts 281°
2026-05-04 13:10 69.68013 18.90971 36 ft 0 kts 281°